Location: Castellar de la Frontera
(36.3200°N, 5.4500°W)
Time: 23:30:34
(UTC+02:00)

ISS - Visible Passes

Search period start: 23 September 2018 00:00
Search period end: 03 October 2018 00:00
Orbit: 403 x 408 km, 51.6° (Epoch: 23 September)

Date Brightness Start Highest point End Pass type
(mag) Time Alt. Az. Time Alt. Az. Time Alt. Az.
23 Sep -3.7 21:05:29 10° SW 21:08:46 76° NW 21:12:04 10° NE visible
23 Sep -0.5 22:44:15 10° NW 22:45:03 12° NW 22:45:03 12° NW visible
24 Sep -1.2 21:51:12 10° WNW 21:53:37 18° NNW 21:55:36 12° NNE visible
25 Sep -2.0 20:58:36 10° W 21:01:33 30° NW 21:04:31 10° NNE visible
26 Sep -0.8 21:45:44 10° NW 21:46:39 11° NNW 21:47:35 10° N visible
27 Sep -1.1 20:52:21 10° WNW 20:54:27 16° NNW 20:56:33 10° NNE visible
